www.pogodaiklimat.ru

Погода и климат >> Архив погоды >> Таиланд >> Лопбури


ПОГОДА в Лопбури

  • Прогноз погоды в Лопбури
  • Монитор погоды в Лопбури

АРХИВ ПОГОДЫ в Лопбури

Время (UTC), дата Ветер
(напр.,м/с)
 
Видим.   Явления Облачность Т
(С)
Тd
(С)
f
(%)
Тe
(С)
Тes
(С)
Комфортность P
(гПа)
Po
(гПа)
Тmin
(С)
Tmax
(С)
R
(мм)
R24
(мм)
S
(см)
06 14.09 З 6 13 км 8/6 600 м
[Cu Sc Ac lent Cs]
+32.5 +26.2 69 +48 +51 опасность
перегрева
1006.9 1005.1
09 14.09 С 5 8000 м гроза, ливневой дождь 10/8 600 м
[Cb cap Ac As Cs]
+28.4 +23.3 74 +38 +39 очень
душно
1005.3 1003.5 0.3
12 14.09 штиль 0 7000 м дымка {гроза} 10/4 600 м
[Sc diur, vesp As op Cs]
+28.4 +26.4 89 +43 +43 опасность
перегрева
1006.0 1004.1 +33.9 3
15 14.09 штиль 0 4000 м дымка {дождь} 9/3 600 м
[Cu hum Ac lent Cs]
+26.6 +25.0 91 +38 +38 очень
душно
1008.6 1006.8 0.1
18 14.09 штиль 0 7000 м дымка {дождь} 9/4 600 м
[Cu Sc As op Cs]
+26.1 +24.5 91 +37 +37 очень
душно
1007.8 1006.0 4
21 14.09 штиль 0 7000 м дымка 4/3 600 м
[Cu hum Cs]
+26.0 +24.0 89 +36 +36 очень
душно
1006.8 1005.0
00 15.09 штиль 0 7000 м дымка 4/3 600 м
[Cu hum Ac lent Cs]
+25.3 +24.4 95 +35 +36 очень
душно
1007.8 1006.0 +25.0
03 15.09 штиль 0 8000 м дымка 5/4 600 м
[Cu med, cong Ac lent Cs]
+31.0 +25.0 70 +44 +55 опасность
перегрева
1009.1 1007.3
06 15.09 В 2 9000 м мгла 8/6 600 м
[Cu med, cong Ac lent Ci fib]
+33.8 +24.3 58 +46 +52 опасность
перегрева
1006.2 1004.4
09 15.09 Ю 3 9000 м дымка 8/8 600 м
[Cu Sc Ac und Cs]
+32.3 +24.8 65 +46 +47 опасность
перегрева
1004.0 1002.2
12 15.09 штиль 0 8000 м дымка {дождь} 6/3 600 м
[Sc Ac lent Cs]
+27.2 +24.0 83 +38 +38 очень
душно
1005.0 1003.2 +35.0 0.4
15 15.09 штиль 0 7000 м дымка 9/5 600 м
[Cu med, cong Ac und Cs]
+27.0 +24.5 86 +38 +38 очень
душно
1007.9 1006.1
18 15.09 штиль 0 7000 м в посл. час гроза 6/3 600 м
[Sc Ac und Cs]
+23.9 +23.0 95 +32 +32 очень
душно
1007.3 1005.4 47
21 15.09 штиль 0 7000 м дымка 6/3 600 м
[Sc Ac trans Cs]
+24.3 +23.9 98 +33 +33 очень
душно
1006.6 1004.8
00 16.09 штиль 0 7000 м дымка 5/3 600 м
[Sc Ac und Cs]
+24.8 +24.1 96 +34 +35 очень
душно
1007.7 1005.8 +23.7
03 16.09 СЗ 3 7000 м дымка 5/3 600 м
[Cu med, cong Ac lent Cs]
+31.2 +25.1 70 +45 +52 опасность
перегрева
1008.6 1006.8
06 16.09 СЗ 2 7000 м мгла 5/4 600 м
[Sc Ac lent Cs]
+33.5 +25.7 64 +49 +60 опасность
перегрева
1006.0 1004.3
09 16.09 штиль 0 7000 м в посл. час дождь 8/4 600 м
[Sc Ac und Cs]
+25.7 +24.7 94 +36 +40 очень
душно
1004.2 1002.4 39
12 16.09 штиль 0 7000 м дымка {дождь} 5/3 600 м
[Sc Ac lent Cs]
+26.4 +25.3 94 +38 +38 очень
душно
1005.1 1003.2 +34.0 39
15 16.09 Ю 3 7000 м слаб. дождь 10/5 600 м
[Sc Ac As Cs]
+25.6 +24.0 91 +35 +35 очень
душно
1008.2 1006.3 3
18 16.09 штиль 0 7000 м дымка {дождь} 10/4 600 м
[Sc Ac As Cs]
+25.1 +24.4 96 +35 +35 очень
душно
1007.2 1005.4 3
21 16.09 штиль 0 7000 м дымка 10/4 600 м
[Sc Ac As Cs]
+25.4 +24.7 96 +36 +36 очень
душно
1006.9 1005.0
00 17.09 штиль 0 7000 м дымка 8/3 600 м
[Sc Ac lent Cs]
+25.1 +24.4 96 +35 +35 очень
душно
1008.0 1006.2 +24.7
03 17.09 штиль 0 13 км 5/3 600 м
[Cu med, cong Ac lent Cs]
+30.6 +24.5 70 +43 +55 опасность
перегрева
1009.4 1007.6
06 17.09 штиль 0 13 км 6/4 600 м
[Cu med, cong Ac lent Cs]
+32.6 +25.4 66 +47 +61 опасность
перегрева
1007.1 1005.3
09 17.09 штиль 0 10 км 9/6 600 м
[Cu Sc As op Cs]
+33.8 +24.4 58 +46 +49 опасность
перегрева
1005.1 1003.3
12 17.09 штиль 0 8000 м зарница 8/4 600 м
[Cb cap Ac lent Cs]
+28.3 +24.3 79 +40 +40 очень
душно
1006.3 1004.5 +34.4
15 17.09 Ю 3 6000 м слаб. дождь 10/6 600 м
[Cb cap Ac As Cs]
+26.9 +24.1 85 +37 +37 очень
душно
1009.1 1007.2 0.0
18 17.09 ЮВ 3 7000 м дымка {гроза, дождь} 6/3 600 м
[Cu med, cong Ac lent Cs]
+25.7 +24.7 94 +36 +36 очень
душно
1008.4 1006.6 0.5
21 17.09 штиль 0 7000 м дымка 10/6 600 м
[Cb cap Ac As Cs]
+25.9 +24.7 93 +37 +37 очень
душно
1008.1 1006.3
00 18.09 штиль 0 8000 м дымка 8/3 600 м
[Cu hum Cs]
+26.0 +24.6 92 +37 +37 очень
душно
1009.7 1007.9 +25.0
03 18.09 штиль 0 8000 м дымка 5/1 600 м
[Cu hum Ac lent Ci fib]
+31.8 +24.7 66 +45 +58 опасность
перегрева
1010.5 1008.7
06 18.09 штиль 0 9000 м в посл. час дождь 8/6 600 м
[Cu med, cong Ac lent Cs]
+32.8 +25.5 66 +48 +56 опасность
перегрева
1007.9 1006.1 1
09 18.09 штиль 0 9000 м дымка 5/4 600 м
[Cu med, cong Ac lent Cs]
+34.3 +27.3 67 +53 +58 опасность
перегрева
1005.7 1003.9
12 18.09 штиль 0 8000 м дымка 5/3 600 м
[Sc Ac lent Cs]
+31.5 +27.1 78 +50 +50 опасность
перегрева
1007.3 1005.5 +34.5
15 18.09 штиль 0 7000 м зарница 8/3 600 м
[Cb cap Ac und Cs]
+29.5 +27.3 88 +47 +47 опасность
перегрева
1009.6 1007.7
18 18.09 штиль 0 7000 м дымка 8/3 600 м
[Sc Ac und Cs]
+27.3 +23.8 81 +37 +37 очень
душно
1009.1 1007.2
21 18.09 Ю 2 7000 м дымка 10/4 600 м
[Sc Ac und Cs]
+26.3 +24.4 89 +37 +37 очень
душно
1008.7 1006.9
00 19.09 С 2 6000 м дымка 10/5 600 м
[Sc Ac As Cs]
+26.0 +24.6 92 +37 +37 очень
душно
1010.0 1008.1 +25.8
03 19.09 штиль 0 6000 м слаб. дождь {гроза} 10/5 600 м
[Sc Ac As Cs]
+26.0 +25.0 94 +37 +42 очень
душно
1011.9 1010.0 9
06 19.09 штиль 0 7000 м слаб. дождь {гроза} 10/6 600 м
[Cu Sc Ac As Cs]
+29.9 +25.2 76 +43 +49 опасность
перегрева
1009.2 1007.3 0.0
09 19.09 Ю 2 7000 м дымка 10/6 600 м
[Cu Sc Ac As Cs]
+30.5 +25.7 76 +45 +47 опасность
перегрева
1006.9 1005.1
12 19.09 Ю 2 7000 м дымка 10/5 600 м
[Cu Sc Ac As Cs]
+28.4 +26.1 87 +43 +43 опасность
перегрева
1008.0 1006.2 +30.8
15 19.09 штиль 0 7000 м дымка 9/4 600 м
[Cu Sc Ac und Cs]
+27.3 +25.9 92 +41 +41 опасность
перегрева
1010.4 1008.6
18 19.09 штиль 0 7000 м дымка 10/4 600 м
[Sc Ac und Cs]
+26.8 +25.4 92 +39 +39 очень
душно
1009.6 1007.8
21 19.09 штиль 0 7000 м в посл. час дождь 10/10 600 м
[Cb cap]
+25.4 +24.5 95 +36 +36 очень
душно
1008.3 1006.5 15
00 20.09 штиль 0 6000 м дымка {дождь} 10/6 600 м
[Sc Ac As Cs]
+25.8 +25.1 96 +37 +37 очень
душно
1009.8 1007.9 +25.1 0.8
03 20.09 штиль 0 6000 м дымка 10/6 600 м
[Cu Sc Ac As]
+28.5 +25.1 82 +41 +44 опасность
перегрева
1010.8 1009.0
06 20.09 штиль 0 7000 м дымка 10/5 600 м
[Cu med, cong Ac As Cs]
+30.5 +25.4 74 +44 +51 опасность
перегрева
1008.1 1006.3
09 20.09 штиль 0 7000 м зарница 10/6 600 м
[Cb cap Ac As Cs]
+30.0 +25.0 75 +43 +45 опасность
перегрева
1005.5 1003.7
12 20.09 штиль 0 7000 м дымка {гроза} 10/3 600 м
[Cu med, cong Ac As Cs]
+26.6 +24.3 87 +37 +37 очень
душно
1007.4 1005.5 +31.5
15 20.09 штиль 0 7000 м дымка {гроза} 10/4 600 м
[Cu hum Ac lent Cs]
+27.5 +25.4 88 +40 +40 очень
душно
1009.7 1007.8
18 20.09 штиль 0 7000 м слаб. дождь {гроза} 10/5 600 м
[Sc diur, vesp Ac As]
+26.2 +25.2 94 +38 +38 очень
душно
1009.2 1007.4 0.8
21 20.09 штиль 0 7000 м в посл. час дождь 9/3 600 м
[Cu med, cong Ac As Cs]
+25.6 +24.9 96 +36 +36 очень
душно
1007.8 1005.9 0.9
00 21.09 штиль 0 4000 м дождь 10/5 600 м
[Sc Ac As]
+25.0 +24.8 99 +35 +35 очень
душно
1009.5 1007.7 +25.0 7
03 21.09 штиль 0 6000 м слаб. дождь {гроза} 10/5 600 м
[Sc Ac As]
+25.5 +24.9 96 +36 +39 очень
душно
1010.5 1008.6 21

 

Местоположение метеостанции Лопбури (Таиланд): широта 14.80 долгота 100.61 высота над уровнем моря 11 м.

В архиве по умолчанию представлена погода в Лопбури за последнюю неделю. Архивные данные за месяц целиком и за предыдущие месяцы, начиная с января 2011 года, Вы можете получить, выбрав интересующий диапазон дат из раскрывающегося списка и нажав кнопку "Ввод!".


*Определитесь, кто Вы:
робот инопланетянин человек

Внимание! Время в таблицах - всемирное. Для получения местного времени необходимо прибавить поправку, которая равна 7 ч.

Смотрите также архив погоды в соседних городах и на ближайших метеорологических станциях:

Погода в Аюттхая (Таиланд) (33 км)
Погода в Лаем-Чабанге (Таиланд) (43 км)
Погода в Сарабури (Таиланд) (46 км)
Погода в Чайнат Агромете (Таиланд) (60 км)
Погода в Такфа Агромете (Таиланд) (62 км)
Погода в Суфанбури (Таиланд) (63 км)
Погода в Патхумтхани (Таиланд) (78 км)
Погода в Пакчонг Агромете (Таиланд) (79 км)
Погода в Буа Чум (Таиланд) (81 км)
Погода в Утай Тани (Таиланд) (89 км)

Пояснения к столбцам:

Ветер - указаны скорость ветра в м/с - средняя за 10 мин, порывы в срок и между сроками (в фигурных скобках) и направление, откуда дует ветер: С - северный, СВ - северо-восточный, В - восточный, ЮВ - юго-восточный, Ю - южный, ЮЗ - юго-западный, З - западный, СЗ - северо-западный.
Видимость - горизонтальная дальность видимости в метрах или километрах. При видимости от 1 до 10 км при отсутствии осадков обычно наблюдается дымка, при ухудшении видимости до 1 км и менее - туман. В сухую погоду видимость может ухудшаться дымом, пылью или мглою.
Явления - указаны атмосферные явления, наблюдавшиеся в срок или в последний час перед сроком; фигурными скобками обозначены явления, наблюдавшиеся между сроками (за 1-3 часа до срока); квадратными скобками обозначены град или гололедные отложения с указанием их диаметра в мм.
Облачность - указаны через наклонную черту общая и нижняя облачность в баллах и высота нижней границы облаков в метрах; квадратными скобками обозначены формы облаков: Ci - перистые, Cs - перисто-слоистые, Cc - перисто-кучевые, Ac - высококучевые, As - высокослоистые, Sc - слоисто-кучевые, Ns - слоисто-дождевые, Cu - кучевые, Cb - кучево-дождевые. Подробнее классификацию облаков см. в Атласе облаков (PDF).
T - Температура воздуха - температура, измеренная на высоте 2 м над землей.
Td - Температура точки росы - температура, при понижении до которой содержащийся в воздухе водяной пар достигнет насыщения.
f - Относительная влажность воздуха - влажноcть воздуха, измеренная на высоте 2 м над землей.
Te - Эффективная температура - температура, которую ощущает одетый по сезону человек в тени. Характеристика душности погоды. При расчете учитывается влияние влажности воздуха и скорости ветра на теплоощущения человека.
Tes - Эффективная температура на солнце - температура, которую ощущает человек, с поправкой на солнечный нагрев. Характеристика знойности погоды. Зависит от высоты солнца над горизонтом, облачности и скорости ветра. Ночью, в пасмурную погоду, а также при ветре 12 м/с и более поправка равна нулю.
P - Атмосферное давление - приведенное к уровню моря атмосферное давление.
Po - Атмосферное давление - измеренное на уровне метеостанции атмосферное давление.
Tmin - Минимальная температура - минимум температуры воздуха на высоте 2 м над землей.
Tmax - Максимальная температура - максимум температуры воздуха на высоте 2 м над землей.
R - Количество осадков - Количество выпавших осадков за период времени, мм. При наведении курсора мыши на число - период времени, за который выпало указанное количество осадков.
R24 - Количество осадков - Количество выпавших осадков за 24 часа, мм.
S - Снежный покров - Высота снежного покрова, см. При наведении курсора мыши на число - состояние снежного покрова и степень покрытия местности в баллах.